Time,TemperatureF,DewpointF,PressureIn,WindDirection,WindDirectionDegrees,WindSpeedMPH,WindSpeedGustMPH,Humidity,HourlyPrecipIn,Conditions,Clouds,dailyrainin,SoftwareType,DateUTC
2013-03-13 00:04:00,27.1,7.6,30.20,NE,56,10.7,10.7,43,0.00,,,0.00,VWS V14.01,2013-03-13 05:04:00,
2013-03-13 00:09:00,27.0,8.0,30.20,NE,56,10.7,10.7,44,0.00,,,0.00,VWS V14.01,2013-03-13 05:09:00,
2013-03-13 00:14:00,26.8,7.8,30.20,NE,56,10.7,10.7,44,0.00,,,0.00,VWS V14.01,2013-03-13 05:14:00,
2013-03-13 00:19:00,26.8,7.8,30.20,NE,56,10.7,10.7,44,0.00,,,0.00,VWS V14.01,2013-03-13 05:19:00,
2013-03-13 00:25:00,26.8,7.8,30.20,NE,56,10.7,10.7,44,0.00,,,0.00,VWS V14.01,2013-03-13 05:25:00,
2013-03-13 00:31:00,26.8,7.8,30.20,NE,56,10.7,10.7,44,0.00,,,0.00,VWS V14.01,2013-03-13 05:31:00,
2013-03-13 00:37:00,26.8,7.8,30.20,NE,56,10.7,10.7,44,0.00,,,0.00,VWS V14.01,2013-03-13 05:37:00,
2013-03-13 00:43:00,26.6,7.6,30.20,NE,56,10.7,10.7,44,0.00,,,0.00,VWS V14.01,2013-03-13 05:43:00,
2013-03-13 00:48:00,26.6,7.6,30.20,NE,56,10.7,10.7,44,0.00,,,0.00,VWS V14.01,2013-03-13 05:48:00,
2013-03-13 00:54:00,26.6,8.1,30.20,NE,56,10.7,10.7,45,0.00,,,0.00,VWS V14.01,2013-03-13 05:54:00,
2013-03-13 00:59:00,26.4,8.0,30.20,NE,56,10.7,10.7,45,0.00,,,0.00,VWS V14.01,2013-03-13 05:59:00,
2013-03-13 01:04:00,26.2,8.3,30.20,NE,56,10.7,10.7,46,0.00,,,0.00,VWS V14.01,2013-03-13 06:04:00,
2013-03-13 01:10:00,26.1,7.6,30.20,NE,56,10.7,10.7,45,0.00,,,0.00,VWS V14.01,2013-03-13 06:10:00,
2013-03-13 01:16:00,26.1,6.6,30.20,NE,56,10.7,10.7,43,0.00,,,0.00,VWS V14.01,2013-03-13 06:16:00,
2013-03-13 01:22:00,26.1,6.6,30.20,NE,56,10.7,10.7,43,0.00,,,0.00,VWS V14.01,2013-03-13 06:22:00,
2013-03-13 01:28:00,25.9,7.0,30.20,NE,56,10.7,10.7,44,0.00,,,0.00,VWS V14.01,2013-03-13 06:28:00,
2013-03-13 01:34:00,25.7,6.3,30.20,NE,56,10.7,10.7,43,0.00,,,0.00,VWS V14.01,2013-03-13 06:34:00,
2013-03-13 01:39:00,25.7,6.3,30.20,NE,56,10.7,10.7,43,0.00,,,0.00,VWS V14.01,2013-03-13 06:39:00,
2013-03-13 01:44:00,25.5,5.6,30.23,NE,56,10.7,10.7,42,0.00,,,0.00,VWS V14.01,2013-03-13 06:44:00,
2013-03-13 01:50:00,25.3,5.5,30.23,NE,56,10.7,10.7,42,0.00,,,0.00,VWS V14.01,2013-03-13 06:50:00,
2013-03-13 01:56:00,25.2,5.8,30.23,NE,56,10.7,10.7,43,0.00,,,0.00,VWS V14.01,2013-03-13 06:56:00,
2013-03-13 02:02:00,24.6,5.8,30.23,NE,56,10.7,10.7,44,0.00,,,0.00,VWS V14.01,2013-03-13 07:02:00,
2013-03-13 02:08:00,24.4,5.7,30.23,NE,56,10.7,10.7,44,0.00,,,0.00,VWS V14.01,2013-03-13 07:08:00,
2013-03-13 02:13:00,24.4,6.2,30.23,NE,56,10.7,10.7,45,0.00,,,0.00,VWS V14.01,2013-03-13 07:13:00,
2013-03-13 02:19:00,24.4,6.6,30.23,NE,56,10.7,10.7,46,0.00,,,0.00,VWS V14.01,2013-03-13 07:19:00,
2013-03-13 02:25:00,24.4,6.6,30.23,NE,56,10.7,10.7,46,0.00,,,0.00,VWS V14.01,2013-03-13 07:25:00,
2013-03-13 02:31:00,24.3,6.5,30.23,NE,56,10.7,10.7,46,0.00,,,0.00,VWS V14.01,2013-03-13 07:31:00,
2013-03-13 02:36:00,24.3,6.5,30.23,NE,56,10.7,10.7,46,0.00,,,0.00,VWS V14.01,2013-03-13 07:36:00,
2013-03-13 02:41:00,24.3,6.5,30.23,NE,56,10.7,10.7,46,0.00,,,0.00,VWS V14.01,2013-03-13 07:41:00,
2013-03-13 02:47:00,23.7,6.4,30.23,NE,56,10.7,10.7,47,0.00,,,0.00,VWS V14.01,2013-03-13 07:47:00,
2013-03-13 02:52:00,23.5,6.8,30.23,NE,56,10.7,10.7,48,0.00,,,0.00,VWS V14.01,2013-03-13 07:52:00,
2013-03-13 02:58:00,23.5,6.8,30.23,NE,56,10.7,10.7,48,0.00,,,0.00,VWS V14.01,2013-03-13 07:58:00,
2013-03-13 03:03:00,23.5,7.2,30.23,NE,56,10.7,10.7,49,0.00,,,0.00,VWS V14.01,2013-03-13 08:03:00,
2013-03-13 03:09:00,23.5,6.8,30.23,NE,56,10.7,10.7,48,0.00,,,0.00,VWS V14.01,2013-03-13 08:09:00,
2013-03-13 03:15:00,23.4,7.0,30.23,NE,56,10.7,10.7,49,0.00,,,0.00,VWS V14.01,2013-03-13 08:15:00,
2013-03-13 03:20:00,23.2,6.9,30.23,NE,56,10.7,10.7,49,0.00,,,0.00,VWS V14.01,2013-03-13 08:20:00,